{"data":{"norad_id":62120,"epoch":"2026-09-20T20:32:22.556832Z","epoch_age_seconds":151580,"freshness":"FRESH","line1":"1 62120U 24222G   26263.85581663  .00011836  00000+0  43883-3 0  9991","line2":"2 62120  42.9974 114.2871 0001414 279.7962  80.2730 15.27587084102600","mean_motion":15.27587084,"eccentricity":0.0001414,"inclination_deg":42.9974,"raan_deg":114.2871,"arg_perigee_deg":279.7962,"mean_anomaly_deg":80.273,"bstar":0.00043883,"rev_number":10260,"period_min":94.266311563027,"perigee_km":482.05771536256,"apogee_km":483.99805279178,"semimajor_km":6861.1648840772,"source":"CELESTRAK","updated_at":"2026-09-22T09:00:49.524872Z"}}